RYR798V EDDG-LEPA

Flight info

Callsign RYR798V
Flight time 2h 7m
Altitude 36000
Route DOMEG1W DOMEG N853 QATJA Y841 NVO Y841 KENUM DCT ARCKY DCT GESLO/N0450F370 DCT LIMGO DCT SUTAL DCT GTQ DCT POGOL DCT LASAT DCT MOROK DCT GILIR DCT GEVEA DCT INCUS DCT BALSI DCT RETNO DCT TUPOX DCT MTG DCT DIVKO DCT VATIR DCT PIVUS DCT BODEQ DCT VERSO L129 LUNIK
Aircraft A320/M-SDE3FGHIRWY/LB1

Departure

Time 2026-05-07 07:20
Airport Münster Osnabrück Airport (EDDG)

Arrival

Time 2026-05-07 09:28
Airport Palma de Mallorca Airport (LEPA)
Time Latitude Longitude Altitude Speed Heading
2026-05-07 06:39 52.13184 7.69456 168 ft 0 kts 197°
2026-05-07 07:17 52.13188 7.69437 167 ft 5 kts 322°
2026-05-07 07:18 52.13238 7.69365 167 ft 14 kts 294°
2026-05-07 07:18 52.13333 7.69278 167 ft 18 kts 341°
2026-05-07 07:18 52.13451 7.69274 167 ft 19 kts 47°
2026-05-07 07:18 52.13502 7.69482 167 ft 21 kts 71°
2026-05-07 07:19 52.13553 7.69729 167 ft 25 kts 71°
2026-05-07 07:19 52.13621 7.69998 167 ft 27 kts 44°
2026-05-07 07:19 52.13780 7.69979 167 ft 17 kts 309°
2026-05-07 07:19 52.13760 7.69880 167 ft 9 kts 246°
2026-05-07 07:20 52.13694 7.69563 169 ft 66 kts 251°
2026-05-07 07:20 52.13467 7.68486 168 ft 132 kts 251°
2026-05-07 07:20 52.13131 7.66859 400 ft 157 kts 252°
2026-05-07 07:20 52.12782 7.65197 1139 ft 155 kts 253°
2026-05-07 07:21 52.12423 7.63540 1648 ft 164 kts 253°
2026-05-07 07:21 52.12029 7.61713 2026 ft 178 kts 254°
2026-05-07 07:21 52.11606 7.59710 2396 ft 197 kts 253°
2026-05-07 07:21 52.11134 7.57484 2650 ft 222 kts 253°
2026-05-07 07:22 52.10583 7.54970 2949 ft 249 kts 247°
2026-05-07 07:22 52.09400 7.52808 3499 ft 268 kts 209°
2026-05-07 07:22 52.07592 7.51968 4300 ft 274 kts 188°
2026-05-07 07:22 52.05678 7.51597 5032 ft 281 kts 185°
2026-05-07 07:23 52.03743 7.51325 6018 ft 280 kts 184°
2026-05-07 07:23 52.01794 7.51069 6862 ft 283 kts 185°
2026-05-07 07:23 51.99813 7.51066 7656 ft 287 kts 173°
2026-05-07 07:23 51.97811 7.51113 8461 ft 291 kts 193°
2026-05-07 07:24 51.95965 7.49772 9261 ft 293 kts 212°
2026-05-07 07:24 51.94191 7.48093 10080 ft 297 kts 211°
2026-05-07 07:24 51.92345 7.46423 10491 ft 315 kts 210°
2026-05-07 07:24 51.90346 7.44672 10726 ft 337 kts 209°
2026-05-07 07:25 51.86084 7.41039 11947 ft 352 kts 208°
2026-05-07 07:25 51.83905 7.39200 12693 ft 354 kts 208°
2026-05-07 07:25 51.81713 7.37351 13448 ft 357 kts 208°
2026-05-07 07:26 51.79504 7.35489 14137 ft 359 kts 209°
2026-05-07 07:26 51.77283 7.33615 14780 ft 362 kts 209°
2026-05-07 07:26 51.75042 7.31718 15419 ft 365 kts 208°
2026-05-07 07:26 51.72789 7.29810 16053 ft 367 kts 208°
2026-05-07 07:27 51.70519 7.27890 16681 ft 370 kts 209°
2026-05-07 07:27 51.68264 7.25987 17334 ft 371 kts 209°
2026-05-07 07:27 51.65938 7.24026 18002 ft 373 kts 208°
2026-05-07 07:27 51.63628 7.22082 18579 ft 376 kts 208°
2026-05-07 07:28 51.61300 7.20125 19111 ft 379 kts 208°
2026-05-07 07:28 51.58955 7.18156 19654 ft 382 kts 209°
2026-05-07 07:28 51.56593 7.16171 20165 ft 385 kts 208°
2026-05-07 07:28 51.54210 7.14168 20693 ft 388 kts 208°
2026-05-07 07:29 51.51806 7.12157 21219 ft 391 kts 208°
2026-05-07 07:29 51.49385 7.10138 21744 ft 394 kts 208°
2026-05-07 07:29 51.46943 7.08104 22261 ft 397 kts 208°
2026-05-07 07:29 51.44517 7.06084 22748 ft 400 kts 208°
2026-05-07 07:30 51.42044 7.04024 23233 ft 402 kts 208°
2026-05-07 07:30 51.39550 7.01950 23689 ft 405 kts 208°
2026-05-07 07:30 51.37037 6.99865 24084 ft 408 kts 208°
2026-05-07 07:30 51.34510 6.97769 24438 ft 411 kts 209°
2026-05-07 07:31 51.31958 6.95653 24808 ft 414 kts 208°
2026-05-07 07:31 51.29393 6.93531 25166 ft 417 kts 208°
2026-05-07 07:31 51.26812 6.91396 25530 ft 419 kts 208°
2026-05-07 07:31 51.24218 6.89250 25888 ft 421 kts 208°
2026-05-07 07:32 51.21606 6.87094 26227 ft 424 kts 208°
2026-05-07 07:32 51.18982 6.84933 26574 ft 426 kts 208°
2026-05-07 07:32 51.16342 6.82759 26911 ft 428 kts 208°
2026-05-07 07:32 51.13689 6.80577 27250 ft 431 kts 208°
2026-05-07 07:33 51.11019 6.78385 27551 ft 433 kts 208°
2026-05-07 07:33 51.08331 6.76184 27870 ft 435 kts 208°
2026-05-07 07:33 51.05630 6.73977 28183 ft 438 kts 208°
2026-05-07 07:33 51.02911 6.71767 28486 ft 440 kts 207°
2026-05-07 07:34 51.00183 6.69552 28800 ft 442 kts 207°
2026-05-07 07:34 50.97440 6.67325 29117 ft 444 kts 208°
2026-05-07 07:34 50.94684 6.65090 29389 ft 446 kts 207°
2026-05-07 07:34 50.91917 6.62844 29666 ft 448 kts 208°
2026-05-07 07:35 50.89143 6.60588 29942 ft 450 kts 208°
2026-05-07 07:35 50.86353 6.58319 30180 ft 452 kts 208°
2026-05-07 07:35 50.83555 6.56050 30417 ft 452 kts 208°
2026-05-07 07:35 50.80747 6.53776 30630 ft 454 kts 208°
2026-05-07 07:36 50.77934 6.51500 30836 ft 455 kts 208°
2026-05-07 07:36 50.75119 6.49226 31125 ft 454 kts 208°
2026-05-07 07:36 50.72304 6.46959 31406 ft 454 kts 208°
2026-05-07 07:36 50.69493 6.44705 31684 ft 453 kts 208°
2026-05-07 07:37 50.67628 6.43211 31845 ft 454 kts 207°
2026-05-07 07:37 50.64815 6.40960 32123 ft 453 kts 208°
2026-05-07 07:37 50.62006 6.38712 32408 ft 453 kts 208°
2026-05-07 07:37 50.58288 6.35736 32769 ft 452 kts 208°
2026-05-07 07:38 50.55482 6.33494 33055 ft 452 kts 208°
2026-05-07 07:38 50.53589 6.31981 33261 ft 451 kts 208°
2026-05-07 07:38 50.50791 6.29751 33539 ft 451 kts 208°
2026-05-07 07:38 50.47995 6.27527 33820 ft 450 kts 207°
2026-05-07 07:39 50.45202 6.25310 34101 ft 449 kts 208°
2026-05-07 07:39 50.42415 6.23103 34352 ft 448 kts 208°
2026-05-07 07:39 50.39633 6.20899 34598 ft 447 kts 207°
2026-05-07 07:39 50.36856 6.18701 34834 ft 447 kts 207°
2026-05-07 07:40 50.34081 6.16507 34984 ft 446 kts 208°
2026-05-07 07:40 50.28489 6.12388 35013 ft 444 kts 200°
2026-05-07 07:41 50.22691 6.09043 35010 ft 444 kts 201°
2026-05-07 07:41 50.16897 6.05681 35013 ft 444 kts 201°
2026-05-07 07:42 50.11093 6.02354 35023 ft 444 kts 199°
2026-05-07 07:42 50.05047 6.00774 35023 ft 446 kts 180°
2026-05-07 07:43 49.98838 6.01240 35014 ft 447 kts 178°
2026-05-07 07:43 49.92628 6.01753 35006 ft 447 kts 178°
2026-05-07 07:44 49.86379 6.02265 35013 ft 447 kts 178°
2026-05-07 07:44 49.80171 6.02773 35012 ft 447 kts 178°
2026-05-07 07:45 49.73965 6.03278 35017 ft 446 kts 178°
2026-05-07 07:45 49.67801 6.03779 35021 ft 447 kts 178°
2026-05-07 07:46 49.61594 6.04284 35023 ft 447 kts 178°
2026-05-07 07:46 49.55384 6.04786 35020 ft 447 kts 178°
2026-05-07 07:47 49.49175 6.05289 35018 ft 447 kts 178°
2026-05-07 07:47 49.42969 6.05792 35017 ft 447 kts 178°
2026-05-07 07:48 49.36759 6.06291 35014 ft 447 kts 178°
2026-05-07 07:48 49.30544 6.06779 35012 ft 447 kts 178°
2026-05-07 07:49 49.24326 6.07272 35016 ft 447 kts 178°
2026-05-07 07:49 49.18110 6.07761 35024 ft 447 kts 178°
2026-05-07 07:50 49.11893 6.08253 35022 ft 447 kts 178°
2026-05-07 07:50 49.05679 6.08757 35026 ft 447 kts 178°
2026-05-07 07:51 48.99462 6.09251 35029 ft 447 kts 178°
2026-05-07 07:51 48.93245 6.09732 35028 ft 447 kts 178°
2026-05-07 07:52 48.87026 6.10219 35024 ft 448 kts 178°
2026-05-07 07:52 48.80804 6.10716 35024 ft 448 kts 178°
2026-05-07 07:53 48.74580 6.11207 35027 ft 448 kts 178°
2026-05-07 07:53 48.68362 6.11690 35034 ft 447 kts 178°
2026-05-07 07:54 48.62148 6.12168 35035 ft 447 kts 178°
2026-05-07 07:54 48.55933 6.12647 35035 ft 447 kts 178°
2026-05-07 07:55 48.49726 6.13121 35038 ft 447 kts 178°
2026-05-07 07:55 48.43518 6.13599 35028 ft 447 kts 178°
2026-05-07 07:56 48.37355 6.14081 35029 ft 446 kts 178°
2026-05-07 07:56 48.31151 6.14557 35029 ft 446 kts 178°
2026-05-07 07:57 48.24945 6.15037 35022 ft 446 kts 178°
2026-05-07 07:57 48.18743 6.15515 35025 ft 446 kts 178°
2026-05-07 07:58 48.12545 6.15985 35026 ft 446 kts 178°
2026-05-07 07:58 48.06347 6.16453 35028 ft 446 kts 178°
2026-05-07 07:59 48.00150 6.16915 35027 ft 446 kts 179°
2026-05-07 07:59 47.93950 6.17384 35032 ft 446 kts 179°
2026-05-07 08:00 47.87758 6.17854 35031 ft 446 kts 179°
2026-05-07 08:00 47.81562 6.18325 35030 ft 446 kts 179°
2026-05-07 08:01 47.75368 6.18790 35049 ft 446 kts 179°
2026-05-07 08:01 47.69167 6.19252 35046 ft 446 kts 179°
2026-05-07 08:02 47.62974 6.19718 35036 ft 446 kts 179°
2026-05-07 08:02 47.56772 6.20188 35026 ft 446 kts 179°
2026-05-07 08:03 47.50567 6.20648 35038 ft 447 kts 179°
2026-05-07 08:03 47.44359 6.21109 35035 ft 447 kts 179°
2026-05-07 08:04 47.38146 6.21569 35027 ft 447 kts 179°
2026-05-07 08:04 47.31928 6.22032 35026 ft 447 kts 179°
2026-05-07 08:05 47.25708 6.22489 35048 ft 447 kts 179°
2026-05-07 08:05 47.19495 6.22946 35039 ft 447 kts 179°
2026-05-07 08:06 47.13287 6.23410 35042 ft 447 kts 179°
2026-05-07 08:06 47.07079 6.23847 35043 ft 446 kts 182°
2026-05-07 08:07 47.00921 6.23201 35030 ft 443 kts 187°
2026-05-07 08:07 46.94779 6.22369 35033 ft 443 kts 188°
2026-05-07 08:08 46.88635 6.21544 35025 ft 443 kts 188°
2026-05-07 08:08 46.82493 6.20729 35026 ft 443 kts 188°
2026-05-07 08:09 46.76353 6.19914 35015 ft 443 kts 188°
2026-05-07 08:09 46.70212 6.19097 35018 ft 443 kts 188°
2026-05-07 08:10 46.64073 6.18283 35018 ft 443 kts 188°
2026-05-07 08:10 46.57935 6.17475 35019 ft 443 kts 188°
2026-05-07 08:11 46.51797 6.16666 35015 ft 443 kts 188°
2026-05-07 08:11 46.45658 6.15868 35014 ft 443 kts 188°
2026-05-07 08:12 46.39523 6.15066 35006 ft 443 kts 188°
2026-05-07 08:12 46.33428 6.14272 35012 ft 443 kts 188°
2026-05-07 08:13 46.27296 6.13474 35016 ft 442 kts 188°
2026-05-07 08:13 46.21182 6.12486 35014 ft 441 kts 191°
2026-05-07 08:14 46.15134 6.11076 35016 ft 440 kts 193°
2026-05-07 08:14 46.09199 6.09124 35014 ft 435 kts 204°
2026-05-07 08:15 46.03536 6.06071 35014 ft 435 kts 204°
2026-05-07 08:15 45.97876 6.03008 35010 ft 434 kts 204°
2026-05-07 08:16 45.92220 5.99963 35021 ft 434 kts 204°
2026-05-07 08:16 45.86571 5.96920 35023 ft 433 kts 204°
2026-05-07 08:17 45.80926 5.93887 35006 ft 433 kts 204°
2026-05-07 08:17 45.75281 5.90866 35009 ft 433 kts 205°
2026-05-07 08:18 45.69641 5.87858 35019 ft 433 kts 204°
2026-05-07 08:18 45.64001 5.84850 35021 ft 432 kts 204°
2026-05-07 08:19 45.58360 5.81857 35013 ft 432 kts 204°
2026-05-07 08:19 45.52718 5.78871 35019 ft 432 kts 204°
2026-05-07 08:20 45.47082 5.75884 35022 ft 432 kts 205°
2026-05-07 08:20 45.41448 5.72902 35003 ft 432 kts 205°
2026-05-07 08:21 45.35818 5.69938 35013 ft 431 kts 205°
2026-05-07 08:21 45.30196 5.66978 35018 ft 431 kts 205°
2026-05-07 08:22 45.24580 5.64029 35016 ft 430 kts 205°
2026-05-07 08:22 45.19914 5.61592 35011 ft 430 kts 205°
2026-05-07 08:23 45.14308 5.58665 35008 ft 429 kts 205°
2026-05-07 08:23 45.08706 5.55740 35011 ft 429 kts 205°
2026-05-07 08:24 45.03109 5.52827 35003 ft 428 kts 205°
2026-05-07 08:24 44.97518 5.49918 35016 ft 428 kts 205°
2026-05-07 08:25 44.91933 5.47014 35021 ft 428 kts 205°
2026-05-07 08:25 44.86342 5.44128 34993 ft 427 kts 205°
2026-05-07 08:26 44.77985 5.39835 35004 ft 425 kts 205°
2026-05-07 08:26 44.72428 5.36974 35012 ft 425 kts 205°
2026-05-07 08:27 44.66919 5.34132 35011 ft 424 kts 205°
2026-05-07 08:27 44.61377 5.31282 35006 ft 424 kts 205°
2026-05-07 08:28 44.55827 5.28440 35007 ft 425 kts 205°
2026-05-07 08:28 44.50272 5.25605 35014 ft 425 kts 205°
2026-05-07 08:29 44.44713 5.22780 34989 ft 424 kts 205°
2026-05-07 08:29 44.39165 5.19966 35003 ft 424 kts 205°
2026-05-07 08:30 44.33620 5.17143 35014 ft 424 kts 205°
2026-05-07 08:30 44.28078 5.14342 35012 ft 423 kts 205°
2026-05-07 08:31 44.22540 5.11547 35022 ft 423 kts 205°
2026-05-07 08:31 44.17013 5.08755 35029 ft 423 kts 205°
2026-05-07 08:32 44.11485 5.05969 35032 ft 422 kts 205°
2026-05-07 08:32 44.05965 5.03195 35030 ft 421 kts 205°
2026-05-07 08:33 44.00456 5.00434 35037 ft 421 kts 205°
2026-05-07 08:33 43.94954 4.97677 35044 ft 420 kts 205°
2026-05-07 08:34 43.89455 4.94938 35034 ft 419 kts 205°
2026-05-07 08:34 43.84001 4.92222 35038 ft 419 kts 205°
2026-05-07 08:35 43.78517 4.89492 35037 ft 419 kts 205°
2026-05-07 08:35 43.73034 4.86769 35032 ft 418 kts 205°
2026-05-07 08:36 43.67561 4.84053 35002 ft 417 kts 205°
2026-05-07 08:36 43.62094 4.81355 35007 ft 417 kts 205°
2026-05-07 08:37 43.56634 4.78663 35009 ft 416 kts 205°
2026-05-07 08:37 43.51181 4.75972 35000 ft 416 kts 205°
2026-05-07 08:38 43.45730 4.73295 35007 ft 416 kts 205°
2026-05-07 08:38 43.40287 4.70628 35010 ft 415 kts 205°
2026-05-07 08:39 43.34849 4.67966 35011 ft 414 kts 205°
2026-05-07 08:39 43.29423 4.65312 34990 ft 414 kts 205°
2026-05-07 08:40 43.24003 4.62662 35002 ft 413 kts 205°
2026-05-07 08:40 43.18590 4.60023 35004 ft 413 kts 205°
2026-05-07 08:41 43.13173 4.57389 34984 ft 413 kts 205°
2026-05-07 08:41 43.07760 4.54764 35003 ft 413 kts 205°
2026-05-07 08:42 43.02348 4.52145 35013 ft 413 kts 205°
2026-05-07 08:42 42.96937 4.49530 35017 ft 412 kts 205°
2026-05-07 08:43 42.91528 4.46916 35015 ft 412 kts 204°
2026-05-07 08:43 42.86121 4.44315 35020 ft 412 kts 204°
2026-05-07 08:44 42.80715 4.41722 35027 ft 411 kts 204°
2026-05-07 08:44 42.75319 4.39129 35031 ft 411 kts 204°
2026-05-07 08:45 42.69928 4.36545 35029 ft 411 kts 204°
2026-05-07 08:45 42.64535 4.33968 35029 ft 411 kts 204°
2026-05-07 08:46 42.59178 4.31412 35026 ft 411 kts 204°
2026-05-07 08:46 42.53790 4.28844 35025 ft 411 kts 204°
2026-05-07 08:47 42.48370 4.26380 35013 ft 411 kts 203°
2026-05-07 08:47 42.42928 4.24017 35028 ft 411 kts 202°
2026-05-07 08:48 42.37487 4.21664 35031 ft 410 kts 202°
2026-05-07 08:48 42.32060 4.19286 35014 ft 410 kts 202°
2026-05-07 08:49 42.26642 4.16899 35036 ft 409 kts 202°
2026-05-07 08:49 42.21229 4.14526 35039 ft 409 kts 202°
2026-05-07 08:50 42.15820 4.12169 35036 ft 408 kts 202°
2026-05-07 08:50 42.10415 4.09822 35017 ft 408 kts 202°
2026-05-07 08:51 42.05019 4.07464 35021 ft 408 kts 202°
2026-05-07 08:51 41.99620 4.05116 35023 ft 408 kts 202°
2026-05-07 08:52 41.94223 4.02783 35023 ft 408 kts 202°
2026-05-07 08:52 41.88823 4.00458 35006 ft 407 kts 202°
2026-05-07 08:53 41.83426 3.98125 35015 ft 407 kts 202°
2026-05-07 08:53 41.78033 3.95785 35019 ft 407 kts 202°
2026-05-07 08:54 41.72638 3.93465 35022 ft 407 kts 202°
2026-05-07 08:54 41.67219 3.91229 35015 ft 410 kts 196°
2026-05-07 08:55 41.61610 3.89763 35026 ft 411 kts 195°
2026-05-07 08:55 41.55984 3.88380 35031 ft 411 kts 195°
2026-05-07 08:56 41.50365 3.87005 35033 ft 410 kts 195°
2026-05-07 08:56 41.44756 3.85626 35016 ft 410 kts 195°
2026-05-07 08:57 41.39150 3.84241 35025 ft 410 kts 195°
2026-05-07 08:57 41.33549 3.82858 35027 ft 409 kts 195°
2026-05-07 08:58 41.27948 3.81481 35016 ft 409 kts 195°
2026-05-07 08:58 41.22355 3.80102 35041 ft 408 kts 195°
2026-05-07 08:59 41.16770 3.78732 35037 ft 408 kts 195°
2026-05-07 08:59 41.11192 3.77359 35035 ft 408 kts 195°
2026-05-07 09:00 41.05616 3.75988 35019 ft 407 kts 196°
2026-05-07 09:00 41.00054 3.74628 35033 ft 406 kts 196°
2026-05-07 09:01 40.94504 3.73277 35044 ft 405 kts 195°
2026-05-07 09:01 40.88999 3.71944 35039 ft 405 kts 195°
2026-05-07 09:02 40.83462 3.70595 35022 ft 404 kts 196°
2026-05-07 09:02 40.77929 3.69254 35032 ft 404 kts 196°
2026-05-07 09:03 40.72400 3.67912 35033 ft 404 kts 196°
2026-05-07 09:03 40.66879 3.66576 35023 ft 403 kts 196°
2026-05-07 09:04 40.61361 3.65245 35025 ft 403 kts 196°
2026-05-07 09:04 40.55849 3.63911 35020 ft 403 kts 196°
2026-05-07 09:05 40.50326 3.62584 35008 ft 404 kts 196°
2026-05-07 09:05 40.44782 3.61255 34584 ft 408 kts 195°
2026-05-07 09:06 40.41991 3.60582 33841 ft 408 kts 195°
2026-05-07 09:06 40.39204 3.59909 33011 ft 407 kts 195°
2026-05-07 09:06 40.36418 3.59241 32215 ft 407 kts 195°
2026-05-07 09:06 40.33637 3.58578 31446 ft 406 kts 195°
2026-05-07 09:07 40.30858 3.57919 30691 ft 405 kts 195°
2026-05-07 09:07 40.28087 3.57261 29950 ft 404 kts 195°
2026-05-07 09:07 40.25325 3.56603 29100 ft 403 kts 195°
2026-05-07 09:07 40.22569 3.55944 28277 ft 402 kts 195°
2026-05-07 09:08 40.19819 3.55288 27452 ft 401 kts 195°
2026-05-07 09:08 40.17081 3.54636 26761 ft 398 kts 195°
2026-05-07 09:08 40.14365 3.53990 26129 ft 395 kts 195°
2026-05-07 09:08 40.11675 3.53356 25514 ft 391 kts 195°
2026-05-07 09:09 40.09010 3.52724 24907 ft 388 kts 195°
2026-05-07 09:09 40.06384 3.52100 24538 ft 379 kts 195°
2026-05-07 09:09 40.03810 3.51491 24088 ft 373 kts 195°
2026-05-07 09:09 40.01270 3.50888 23639 ft 369 kts 195°
2026-05-07 09:10 39.99605 3.50492 23303 ft 366 kts 195°
2026-05-07 09:10 39.97115 3.49902 22839 ft 361 kts 195°
2026-05-07 09:10 39.94664 3.49321 22413 ft 356 kts 195°
2026-05-07 09:10 39.92245 3.48747 21984 ft 351 kts 195°
2026-05-07 09:11 39.89859 3.48182 21553 ft 347 kts 195°
2026-05-07 09:11 39.87494 3.47619 21120 ft 343 kts 194°
2026-05-07 09:11 39.85157 3.47063 20687 ft 340 kts 194°
2026-05-07 09:11 39.82837 3.46513 20251 ft 338 kts 194°
2026-05-07 09:12 39.80532 3.45968 19816 ft 336 kts 194°
2026-05-07 09:12 39.78241 3.45428 19378 ft 334 kts 194°
2026-05-07 09:12 39.75955 3.44888 18942 ft 333 kts 194°
2026-05-07 09:12 39.73687 3.44302 18501 ft 331 kts 199°
2026-05-07 09:13 39.71572 3.43192 18043 ft 327 kts 212°
2026-05-07 09:13 39.69746 3.41484 17592 ft 322 kts 224°
2026-05-07 09:13 39.68290 3.39294 17149 ft 320 kts 237°
2026-05-07 09:13 39.67217 3.36778 16709 ft 318 kts 243°
2026-05-07 09:14 39.66240 3.34247 16272 ft 318 kts 243°
2026-05-07 09:14 39.65239 3.31654 15832 ft 317 kts 243°
2026-05-07 09:14 39.64259 3.29119 15621 ft 310 kts 243°
2026-05-07 09:14 39.63305 3.26647 15401 ft 303 kts 243°
2026-05-07 09:15 39.62377 3.24248 15189 ft 300 kts 243°
2026-05-07 09:15 39.61432 3.21803 14931 ft 299 kts 243°
2026-05-07 09:15 39.60514 3.19427 14541 ft 300 kts 243°
2026-05-07 09:15 39.59577 3.17004 14146 ft 300 kts 242°
2026-05-07 09:16 39.58640 3.14583 13765 ft 300 kts 242°
2026-05-07 09:16 39.57708 3.12180 13411 ft 298 kts 242°
2026-05-07 09:16 39.56778 3.09786 13006 ft 297 kts 242°
2026-05-07 09:16 39.55851 3.07399 12621 ft 296 kts 242°
2026-05-07 09:17 39.54934 3.05034 12208 ft 291 kts 240°
2026-05-07 09:17 39.54029 3.02704 11499 ft 289 kts 242°
2026-05-07 09:17 39.53128 3.00389 10896 ft 286 kts 242°
2026-05-07 09:17 39.52226 2.98075 10444 ft 288 kts 241°
2026-05-07 09:18 39.51324 2.95765 10088 ft 286 kts 242°
2026-05-07 09:18 39.50431 2.93478 9464 ft 284 kts 242°
2026-05-07 09:18 39.49541 2.91199 8740 ft 283 kts 242°
2026-05-07 09:18 39.48655 2.88927 8022 ft 282 kts 242°
2026-05-07 09:19 39.47764 2.86645 7542 ft 284 kts 242°
2026-05-07 09:19 39.46876 2.84372 7145 ft 283 kts 242°
2026-05-07 09:19 39.45986 2.82101 6736 ft 283 kts 242°
2026-05-07 09:19 39.45094 2.79826 6288 ft 284 kts 242°
2026-05-07 09:20 39.44203 2.77554 5888 ft 282 kts 243°
2026-05-07 09:20 39.43510 2.75187 5447 ft 282 kts 257°
2026-05-07 09:20 39.43230 2.72681 4991 ft 282 kts 263°
2026-05-07 09:20 39.43007 2.70171 4526 ft 282 kts 263°
2026-05-07 09:21 39.42781 2.67651 4089 ft 281 kts 263°
2026-05-07 09:21 39.42556 2.65147 3743 ft 277 kts 263°
2026-05-07 09:21 39.42337 2.62731 3616 ft 264 kts 263°
2026-05-07 09:21 39.42128 2.60429 3488 ft 252 kts 263°
2026-05-07 09:22 39.41927 2.58229 3365 ft 241 kts 263°
2026-05-07 09:22 39.41733 2.56107 3118 ft 236 kts 263°
2026-05-07 09:22 39.41542 2.54008 2781 ft 235 kts 263°
2026-05-07 09:22 39.41535 2.51923 2466 ft 231 kts 289°
2026-05-07 09:23 39.42438 2.50341 2314 ft 219 kts 335°
2026-05-07 09:23 39.43865 2.50025 2308 ft 209 kts 19°
2026-05-07 09:23 39.45029 2.51017 2316 ft 202 kts 52°
2026-05-07 09:23 39.45859 2.52481 2317 ft 203 kts 59°
2026-05-07 09:24 39.46608 2.54011 2312 ft 204 kts 59°
2026-05-07 09:24 39.47351 2.55567 2312 ft 202 kts 59°
2026-05-07 09:24 39.48097 2.57134 2314 ft 201 kts 59°
2026-05-07 09:24 39.48807 2.58625 2177 ft 195 kts 59°
2026-05-07 09:25 39.49521 2.60127 1965 ft 192 kts 60°
2026-05-07 09:25 39.50206 2.61567 1732 ft 183 kts 60°
2026-05-07 09:25 39.50839 2.62899 1480 ft 169 kts 60°
2026-05-07 09:25 39.51429 2.64143 1257 ft 154 kts 59°
2026-05-07 09:26 39.51967 2.65274 1066 ft 141 kts 60°
2026-05-07 09:26 39.52466 2.66325 885 ft 133 kts 60°
2026-05-07 09:26 39.52937 2.67319 745 ft 128 kts 60°
2026-05-07 09:26 39.53401 2.68300 569 ft 129 kts 60°
2026-05-07 09:27 39.53880 2.69306 389 ft 131 kts 58°
2026-05-07 09:27 39.54359 2.70296 215 ft 127 kts 59°
2026-05-07 09:27 39.55237 2.72174 40 ft 103 kts 58°
2026-05-07 09:28 39.55518 2.72770 38 ft 51 kts 58°
2026-05-07 09:28 39.55679 2.73114 38 ft 33 kts 59°
2026-05-07 09:28 39.55717 2.73345 38 ft 25 kts 88°
2026-05-07 09:28 39.55709 2.73513 38 ft 15 kts 133°
2026-05-07 09:29 39.55613 2.73509 38 ft 13 kts 164°
2026-05-07 09:29 39.55536 2.73565 38 ft 12 kts 152°
2026-05-07 09:29 39.55478 2.73519 38 ft 10 kts 236°
2026-05-07 09:29 39.55434 2.73457 38 ft 10 kts 199°
2026-05-07 09:30 39.55349 2.73500 38 ft 14 kts 149°
2026-05-07 09:30 39.55262 2.73568 38 ft 15 kts 149°
2026-05-07 09:30 39.55177 2.73631 38 ft 10 kts 160°
2026-05-07 09:30 39.55130 2.73591 38 ft 8 kts 236°
2026-05-07 09:31 39.55101 2.73569 38 ft 4 kts 179°
2026-05-07 09:31 39.55075 2.73576 38 ft 3 kts 165°
2026-05-07 09:31 39.55066 2.73579 35 ft 0 kts 164°